| time (UTC) | temp F | wind direction | speed knots | gust knots | rain 1hr in | rain 24hr in | rain mn in | humidity % | barometer mb |
| 20260505121518 | 55 | 0.0 | 0.0 | 0.00 | 0.00 | 0.00 | 32 | 1023.7 | |
| 20260505120526 | 55 | 0.0 | 0.0 | 0.00 | 0.00 | 0.00 | 32 | 1023.8 | |
| 20260505115518 | 55 | 0.0 | 0.0 | 0.00 | 0.00 | 0.00 | 31 | 1023.9 | |
| 20260505114526 | 55 | 0.0 | 0.0 | 0.00 | 0.00 | 0.00 | 30 | 1023.8 | |
| 20260505113518 | 55 | 0.0 | 0.0 | 0.00 | 0.00 | 0.00 | 32 | 1023.8 | |
| 20260505112526 | 55 | 0.0 | 0.0 | 0.00 | 0.00 | 0.00 | 29 | 1023.7 | |
| 20260505111517 | 56 | 0.0 | 0.0 | 0.00 | 0.00 | 0.00 | 32 | 1023.7 | |
| 20260505110526 | 56 | 0.0 | 0.0 | 0.00 | 0.00 | 0.00 | 32 | 1023.6 | |
| 20260505101518 | 56 | 0.0 | 0.0 | 0.00 | 0.00 | 0.00 | 30 | 1023.7 | |
| 20260505100519 | 56 | 0.0 | 0.0 | 0.00 | 0.00 | 0.00 | 30 | 1023.8 | |
| 20260505095525 | 56 | 0.0 | 0.0 | 0.00 | 0.00 | 0.00 | 30 | 1023.7 | |
| 20260505094525 | 56 | 0.0 | 0.0 | 0.00 | 0.00 | 0.00 | 29 | 1023.6 | |
| 20260505093518 | 56 | 0.0 | 0.0 | 0.00 | 0.00 | 0.00 | 29 | 1023.6 | |
| 20260505092526 | 56 | 0.0 | 0.0 | 0.00 | 0.00 | 0.00 | 29 | 1023.6 | |
| 20260505091519 | 56 | 0.0 | 0.0 | 0.00 | 0.00 | 0.00 | 29 | 1023.6 | |
| 20260505090522 | 56 | 0.0 | 0.0 | 0.00 | 0.00 | 0.00 | 29 | 1023.5 | |
| 20260505085522 | 57 | 0.0 | 0.0 | 0.00 | 0.00 | 0.00 | 28 | 1023.6 | |
| 20260505084618 | 57 | 0.0 | 0.0 | 0.00 | 0.00 | 0.00 | 28 | 1023.4 | |
| 20260505083524 | 57 | 0.0 | 0.0 | 0.00 | 0.00 | 0.00 | 26 | 1023.3 | |
| 20260505082526 | 57 | 0.0 | 0.0 | 0.00 | 0.00 | 0.00 | 26 | 1023.1 | |
| 20260505081518 | 57 | 0.0 | 0.0 | 0.00 | 0.00 | 0.00 | 26 | 1023.1 | |
| 20260505080546 | 57 | 0.0 | 0.0 | 0.00 | 0.00 | 0.00 | 27 | 1023.0 | |
| 20260505075518 | 58 | 0.0 | 0.0 | 0.00 | 0.00 | 0.00 | 26 | 1022.8 | |
| 20260505074526 | 58 | 0.0 | 0.0 | 0.00 | 0.00 | 0.00 | 27 | 1022.8 | |
| 20260505073549 | 58 | 0.0 | 0.0 | 0.00 | 0.00 | 0.00 | 26 | 1022.7 | |
| 20260505072525 | 58 | 0.0 | 0.0 | 0.00 | 0.00 | 0.00 | 26 | 1022.6 | |
| 20260505071518 | 58 | 0.0 | 0.0 | 0.00 | 0.00 | 0.00 | 25 | 1022.5 | |
| 20260505070525 | 58 | 0.0 | 0.0 | 0.00 | 0.00 | 0.00 | 25 | 1022.5 | |
| 20260505065557 | 59 | 0.0 | 0.0 | 0.00 | 0.00 | 0.00 | 24 | 1022.3 | |
| 20260505064541 | 59 | 0.0 | 0.0 | 0.00 | 0.00 | 0.00 | 23 | 1022.2 | |
| 20260505063537 | 59 | 0.0 | 0.0 | 0.00 | 0.00 | 0.00 | 23 | 1022.2 | |
| 20260505062545 | 59 | 0.0 | 0.0 | 0.00 | 0.00 | 0.00 | 24 | 1022.2 | |
| 20260505061517 | 59 | 0.0 | 0.0 | 0.00 | 0.00 | 0.00 | 23 | 1022.2 | |
| 20260505060545 | 59 | 0.0 | 0.0 | 0.00 | 0.00 | 0.00 | 24 | 1022.2 | |
| 20260505055517 | 60 | 0.0 | 0.0 | 0.00 | 0.00 | 0.00 | 23 | 1022.1 | |
| 20260505054525 | 60 | 0.0 | 0.0 | 0.00 | 0.00 | 0.00 | 23 | 1022.0 | |
| 20260505053519 | 60 | 0.0 | 0.0 | 0.00 | 0.00 | 0.00 | 23 | 1021.8 | |
| 20260505052526 | 60 | 0.0 | 0.0 | 0.00 | 0.00 | 0.00 | 22 | 1021.7 | |
| 20260505051516 | 60 | 0.0 | 0.0 | 0.00 | 0.00 | 0.00 | 21 | 1021.6 | |
| 20260505050524 | 60 | 0.0 | 0.0 | 0.00 | 0.00 | 0.00 | 22 | 1021.6 | |
| 20260505041517 | 59 | 0.0 | 0.0 | 0.00 | 0.00 | 0.00 | 22 | 1021.3 | |
| 20260505040524 | 59 | 0.0 | 0.0 | 0.00 | 0.00 | 0.00 | 23 | 1021.3 | |
| 20260505035516 | 59 | 251 | 0.0 | 1.7 | 0.00 | 0.00 | 0.00 | 23 | 1021.2 |
| 20260505034524 | 59 | 0.0 | 0.0 | 0.00 | 0.00 | 0.00 | 23 | 1021.4 | |
| 20260505033517 | 60 | 271 | 0.0 | 4.3 | 0.00 | 0.00 | 0.00 | 22 | 1021.3 |
| 20260505032524 | 60 | 239 | 0.0 | 4.3 | 0.00 | 0.00 | 0.00 | 22 | 1021.3 |
| 20260505031519 | 60 | 245 | 0.9 | 4.3 | 0.00 | 0.00 | 0.00 | 22 | 1021.3 |
| 20260505030524 | 60 | 274 | 0.0 | 1.7 | 0.00 | 0.00 | 0.00 | 22 | 1021.2 |
| 20260505025517 | 59 | 0.0 | 0.0 | 0.00 | 0.00 | 0.00 | 21 | 1021.3 | |
| 20260505024524 | 59 | 240 | 0.9 | 6.1 | 0.00 | 0.00 | 0.00 | 23 | 1021.4 |
| 20260505023542 | 58 | 226 | 0.0 | 1.7 | 0.00 | 0.00 | 0.00 | 23 | 1021.3 |
| 20260505022524 | 58 | 266 | 0.9 | 4.3 | 0.00 | 0.00 | 0.00 | 24 | 1021.5 |
| 20260505021527 | 58 | 282 | 0.0 | 1.7 | 0.00 | 0.00 | 0.00 | 25 | 1021.5 |
| 20260505020525 | 58 | 273 | 0.0 | 4.3 | 0.00 | 0.00 | 0.00 | 25 | 1021.5 |
| 20260505015517 | 59 | 232 | 0.0 | 1.7 | 0.00 | 0.00 | 0.00 | 26 | 1021.6 |
| 20260505014544 | 59 | 256 | 1.7 | 4.3 | 0.00 | 0.00 | 0.00 | 26 | 1021.7 |
| 20260505013557 | 59 | 245 | 0.9 | 6.1 | 0.00 | 0.00 | 0.00 | 25 | 1021.7 |
| 20260505012524 | 58 | 331 | 0.0 | 1.7 | 0.00 | 0.00 | 0.00 | 23 | 1021.7 |
| 20260505011517 | 57 | 0.0 | 0.0 | 0.00 | 0.00 | 0.00 | 26 | 1021.8 | |
| 20260505010524 | 57 | 259 | 0.9 | 4.3 | 0.00 | 0.00 | 0.00 | 27 | 1021.6 |
| 20260505005523 | 58 | 270 | 0.0 | 4.3 | 0.00 | 0.00 | 0.00 | 29 | 1021.6 |
| 20260505004530 | 58 | 257 | 1.7 | 6.1 | 0.00 | 0.00 | 0.00 | 28 | 1021.5 |
| 20260505003533 | 58 | 262 | 0.9 | 6.1 | 0.00 | 0.00 | 0.00 | 28 | 1021.4 |
| 20260505002524 | 57 | 251 | 2.6 | 8.7 | 0.00 | 0.00 | 0.00 | 29 | 1021.3 |
| 20260505001516 | 57 | 256 | 1.7 | 6.1 | 0.00 | 0.00 | 0.00 | 29 | 1021.2 |
| 20260505000517 | 57 | 251 | 1.7 | 8.7 | 0.00 | 0.00 | 0.00 | 31 | 1021.2 |
| 20260504235516 | 57 | 261 | 1.7 | 8.7 | 0.00 | 0.00 | 0.00 | 31 | 1021.1 |
| 20260504234524 | 57 | 238 | 0.9 | 6.1 | 0.00 | 0.00 | 0.00 | 31 | 1021.2 |
| 20260504233552 | 57 | 276 | 0.9 | 8.7 | 0.00 | 0.00 | 0.00 | 31 | 1021.0 |
| 20260504232544 | 57 | 264 | 0.0 | 1.7 | 0.00 | 0.00 | 0.00 | 32 | 1020.9 |
| 20260504231533 | 57 | 267 | 0.0 | 1.7 | 0.00 | 0.00 | 0.00 | 32 | 1020.9 |
| 20260504230524 | 56 | 0.0 | 0.0 | 0.00 | 0.00 | 0.00 | 32 | 1020.9 | |
| 20260504225532 | 56 | 0.0 | 0.0 | 0.00 | 0.00 | 0.00 | 34 | 1020.8 | |
| 20260504224524 | 55 | 0.0 | 0.0 | 0.00 | 0.00 | 0.00 | 35 | 1020.7 | |
| 20260504223516 | 55 | 0.0 | 0.0 | 0.00 | 0.00 | 0.00 | 36 | 1020.5 | |
| 20260504222525 | 54 | 0.0 | 0.0 | 0.00 | 0.00 | 0.00 | 39 | 1020.2 | |
| 20260504221532 | 53 | 0.0 | 0.0 | 0.00 | 0.00 | 0.00 | 41 | 1020.1 | |
| 20260504220523 | 53 | 0.0 | 0.0 | 0.00 | 0.00 | 0.00 | 42 | 1020.0 | |
| 20260504215532 | 53 | 0.0 | 0.0 | 0.00 | 0.00 | 0.00 | 42 | 1019.9 | |
| 20260504214520 | 53 | 0.0 | 0.0 | 0.00 | 0.00 | 0.00 | 42 | 1019.6 | |
| 20260504213612 | 53 | 0.0 | 0.0 | 0.00 | 0.00 | 0.00 | 42 | 1019.5 | |
| 20260504212545 | 53 | 0.0 | 0.0 | 0.00 | 0.00 | 0.00 | 40 | 1019.2 | |
| 20260504211532 | 53 | 0.0 | 0.0 | 0.00 | 0.00 | 0.00 | 40 | 1019.0 | |
| 20260504210524 | 53 | 0.0 | 0.0 | 0.00 | 0.00 | 0.00 | 40 | 1019.0 | |
| 20260504205517 | 54 | 0.0 | 0.0 | 0.00 | 0.00 | 0.00 | 40 | 1018.8 | |
| 20260504204523 | 54 | 0.0 | 0.0 | 0.00 | 0.00 | 0.00 | 40 | 1018.7 | |
| 20260504203532 | 54 | 287 | 0.0 | 1.7 | 0.00 | 0.00 | 0.00 | 39 | 1018.5 |
| 20260504202524 | 54 | 0.0 | 0.0 | 0.00 | 0.00 | 0.00 | 39 | 1018.3 | |
| 20260504201516 | 54 | 0.0 | 0.0 | 0.00 | 0.00 | 0.00 | 38 | 1018.1 | |
| 20260504200522 | 54 | 0.0 | 0.0 | 0.00 | 0.00 | 0.00 | 37 | 1018.1 | |
| 20260504195516 | 55 | 0.0 | 0.0 | 0.00 | 0.00 | 0.00 | 35 | 1018.1 | |
| 20260504194523 | 55 | 355 | 0.0 | 1.7 | 0.00 | 0.00 | 0.00 | 33 | 1017.9 |
| 20260504193551 | 55 | 159 | 0.0 | 1.7 | 0.00 | 0.00 | 0.00 | 33 | 1017.8 |
| 20260504192524 | 55 | 0.0 | 0.0 | 0.00 | 0.00 | 0.00 | 32 | 1017.7 | |
| 20260504191532 | 55 | 0.0 | 0.0 | 0.00 | 0.00 | 0.00 | 32 | 1017.6 | |
| 20260504190524 | 54 | 0.0 | 0.0 | 0.00 | 0.00 | 0.00 | 33 | 1017.6 | |
| 20260504185516 | 54 | 247 | 0.0 | 1.7 | 0.00 | 0.00 | 0.00 | 33 | 1017.4 |
| 20260504184544 | 55 | 0.0 | 0.0 | 0.00 | 0.00 | 0.00 | 33 | 1017.4 | |
| 20260504183552 | 55 | 0.0 | 0.0 | 0.00 | 0.00 | 0.00 | 33 | 1017.2 | |
| 20260504182544 | 55 | 260 | 0.0 | 4.3 | 0.00 | 0.00 | 0.00 | 32 | 1017.0 |
| 20260504181532 | 55 | 0.0 | 0.0 | 0.00 | 0.00 | 0.00 | 33 | 1017.0 | |
| 20260504180531 | 55 | 277 | 0.0 | 1.7 | 0.00 | 0.00 | 0.00 | 33 | 1016.9 |
| 20260504175532 | 55 | 0.0 | 0.0 | 0.00 | 0.00 | 0.00 | 33 | 1016.7 | |
| 20260504174523 | 55 | 309 | 0.0 | 4.3 | 0.00 | 0.00 | 0.00 | 33 | 1016.7 |
| 20260504173611 | 55 | 0.0 | 0.0 | 0.00 | 0.00 | 0.00 | 33 | 1016.7 | |
| 20260504172524 | 55 | 195 | 0.0 | 1.7 | 0.00 | 0.00 | 0.00 | 33 | 1016.6 |
| 20260504171604 | 55 | 0.0 | 0.0 | 0.00 | 0.00 | 0.00 | 34 | 1016.5 | |
| 20260504170528 | 55 | 287 | 0.0 | 1.7 | 0.00 | 0.00 | 0.00 | 34 | 1016.5 |
| 20260504150523 | 56 | 317 | 0.0 | 1.7 | 0.00 | 0.00 | 0.00 | 34 | 1016.0 |
| 20260504140524 | 56 | 311 | 0.9 | 4.3 | 0.00 | 0.00 | 0.00 | 34 | 1015.4 |
| 20260504130523 | 56 | 357 | 0.0 | 4.3 | 0.00 | 0.00 | 0.00 | 35 | 1015.2 |